Skip Page Navigation
NASA JPL Caltech
NASA Logo - Jet Propulsion Laboratory + View the NASA Portal
+ Center for Near-Earth Object Studies
JPL Home Earth Solar System Stars & Galaxies Technology
JPL Solar System Dynamics
BODIES ORBITS EPHEMERIDES TOOLS PHYSICAL DATA DISCOVERY FAQ SITE MAP
JPL Small-Body Database Browser
Search: [ help ]  
175963 (2000 JF67)
Classification: Main-belt Asteroid          SPK-ID: 2175963
Ephemeris | Orbit Diagram | Orbital Elements | Mission Design | Physical Parameters | Discovery Circumstances | Close-Approach Data ]

[ show orbit diagram ]
Orbital Elements at Epoch 2459200.5 (2020-Dec-17.0) TDB
Reference: JPL 17 (heliocentric ecliptic J2000)
 Element Value Uncertainty (1-sigma)   Units 
e .07240579540907012 6.1526e-08  
a 2.665950362127669 1.6417e-08 au
q 2.472920105636717 1.7102e-07 au
i 3.712622244553384 4.8128e-06 deg
node 37.4626042463842 8.128e-05 deg
peri 129.1103024392455 8.6763e-05 deg
M 312.5315234053334 2.987e-05 deg
tp 2459410.142489664719
(2021-Jul-14.64248966)
0.00013207 TDB
period 1589.924549796455
4.35
1.4686e-05
4.021e-08
d
yr
n .2264258389154931 2.0915e-09 deg/d
Q 2.858980618618622 1.7605e-08 au
  Orbit Determination Parameters
   # obs. used (total)      334  
   data-arc span      9506 days (26.03 yr)  
   first obs. used      1995-02-01  
   last obs. used      2021-02-10  
   planetary ephem.      DE441  
   SB-pert. ephem.      SB441-N16  
   condition code      0  
   norm. resid. RMS      .53894  
   source      ORB  
   producer      Otto Matic  
   solution date      2021-Apr-13 21:07:32  

Additional Information
 Earth MOID = 1.48097 au 
 Jupiter MOID = 2.10727 au 
 T_jup = 3.377 
[ show covariance matrix ]

Ephemeris | Orbit Diagram | Orbital Elements | Mission Design | Physical Parameters | Discovery Circumstances | Close-Approach Data ]

Physical Parameter Table
Parameter Symbol Value Units Sigma Reference Notes
absolute magnitude H 16.7   n/a MPO454209  

175963 (2000 JF67)          Discovered 2000-May-04 by Spacewatch at Kitt Peak
Reference: 20080221/Numbers.arcLast Updated: 2008-02-22

[ show close-approach data ]
Alternate Designations
 2000 JF67 = 2004 EU30 
Ephemeris | Orbit Diagram | Orbital Elements | Mission Design | Physical Parameters | Discovery Circumstances | Close-Approach Data ]
ABOUT SSD CREDITS/AWARDS PRIVACY/COPYRIGHT GLOSSARY LINKS
FirstGov 2021-Apr-23 06:46 UT
(server date/time)  
NASA Home Page
Site Manager:   Ryan S. Park
Webmaster  Alan B. Chamberlin